Volver al catálogo

FENGYUN 1C DEB

ActivoSSO
NORAD 29970·DEBRIS·🇨🇳 China

Lanzado May 10, 1999 desde Taiyuan Satellite Launch Center

Loading…

Próximos Pases (próximas 24 horas)

TLE

ActualizadoSource: Space-Track

Época: Sep 14, 2026, 14:54 UTC

1 29970U 99025KU  26257.62109083  .00001072  00000-0  30671-3 0  9993
2 29970  98.8260 201.1449 0091227  83.5152  88.4778 14.44822571 31035

Sigue FENGYUN 1C DEB en tiempo real con AllMySat

Download on the App Store